Location: Unspecified
(0.0000°N, 0.0000°E)
Time: 07:09:02
(UTC+00:00)

Hubble Space Telescope - Pass Details

Date: 11 January 2019
Orbit: 536 x 540 km, 28.5° (Epoch: 15 June)

Event Time Altitude Azimuth Distance (km) Brightness Sun altitude
Exits shadow 03:46:14 20° 99° (E) 1,291 3.3 -32.5°
Drops below altitude 10° 03:47:46 10° 86° (E) 1,785 4.1 -32.2°
Sets 03:50:11 0° 76° (ENE) 2,675 5.0 -31.6°
